Location: Unspecified
(0.0000°N, 0.0000°E)
Time: 07:30:40
(UTC+00:00)

SO-50 - Pass Details

Date: 11 December 2017
Orbit: 611 x 676 km, 64.6° (Epoch: 14 January)

Event Time Altitude Azimuth Distance (km) Brightness Sun altitude
Exits shadow 03:48:01 12° 199° (SSW) 1,950 ? -28.6°
Drops below altitude 10° 03:48:33 10° 194° (SSW) 2,109 ? -28.4°
Sets 03:51:16 0° 180° (S) 3,024 ? -27.8°
